Location: Unnamed
(51.8936°N, 11.0665°E)
Time: 00:27:48
(UTC+02:00)

UKube-1 - Pass Details

Date: 01 October 2021
Orbit: 611 x 618 km, 98.4° (Epoch: 18 October)

Event Time Altitude Azimuth Distance (km) Brightness Sun altitude
Rises 21:42:47 0° 19° (NNE) 2,893 ? -26.0°
Reaches altitude 10° 21:45:04 10° 26° (NNE) 1,984 ? -26.3°
Enters shadow 21:45:07 10° 27° (NNE) 1,962 ? -26.4°
